TimeCST,TemperatureF,Dew PointF,Humidity,Sea Level PressureIn,VisibilityMPH,Wind Direction,Wind SpeedMPH,Gust SpeedMPH,PrecipitationIn,Events,Conditions,WindDirDegrees,DateUTC
12:53 AM,30.0,25.0,82,29.83,10.0,NNW,21.9,-,N/A,,Overcast,330,2013-01-30 06:53:00
1:53 AM,27.0,21.9,81,29.86,10.0,NNW,18.4,-,N/A,,Clear,340,2013-01-30 07:53:00
2:53 AM,28.0,24.1,85,29.88,10.0,NNW,16.1,-,N/A,,Overcast,340,2013-01-30 08:53:00
3:53 AM,28.9,25.0,85,29.91,10.0,North,15.0,20.7,N/A,,Overcast,350,2013-01-30 09:53:00
4:53 AM,28.0,24.1,85,29.94,10.0,North,16.1,20.7,N/A,,Overcast,360,2013-01-30 10:53:00
5:53 AM,27.0,21.0,78,29.96,10.0,NNW,17.3,26.5,N/A,,Overcast,340,2013-01-30 11:53:00
6:53 AM,24.1,18.0,77,29.99,10.0,NNW,18.4,26.5,0.00,,Overcast,330,2013-01-30 12:53:00
7:06 AM,23.0,17.6,80,29.93,10.0,NNW,19.6,25.3,N/A,,Overcast,330,2013-01-30 13:06:00
7:53 AM,21.9,15.1,75,30.01,10.0,NW,13.8,-,N/A,,Overcast,320,2013-01-30 13:53:00
8:37 AM,19.4,14.0,80,29.95,10.0,NW,15.0,-,N/A,,Mostly Cloudy,320,2013-01-30 14:37:00
8:49 AM,19.4,12.2,74,29.95,10.0,NW,11.5,-,N/A,,Scattered Clouds,310,2013-01-30 14:49:00
8:53 AM,19.9,12.9,74,30.03,10.0,NW,12.7,-,N/A,,Scattered Clouds,310,2013-01-30 14:53:00
9:53 AM,21.0,12.9,71,30.04,10.0,NW,15.0,21.9,N/A,,Clear,310,2013-01-30 15:53:00
10:53 AM,24.1,12.9,62,30.03,10.0,NNW,16.1,24.2,N/A,,Clear,330,2013-01-30 16:53:00
11:53 AM,25.0,15.1,66,30.02,10.0,WNW,12.7,-,N/A,,Clear,290,2013-01-30 17:53:00
12:53 PM,26.1,15.1,63,30.00,10.0,WNW,10.4,19.6,N/A,,Clear,290,2013-01-30 18:53:00
1:53 PM,28.0,16.0,61,29.98,10.0,WNW,12.7,-,N/A,,Clear,300,2013-01-30 19:53:00
2:53 PM,30.9,17.1,57,29.95,10.0,WNW,13.8,-,N/A,,Clear,300,2013-01-30 20:53:00
3:53 PM,33.1,16.0,50,29.94,10.0,West,9.2,-,N/A,,Clear,280,2013-01-30 21:53:00
4:53 PM,33.1,18.0,54,29.93,10.0,West,4.6,-,N/A,,Clear,260,2013-01-30 22:53:00
5:53 PM,30.9,18.0,59,29.93,10.0,South,3.5,-,N/A,,Clear,180,2013-01-30 23:53:00
6:53 PM,24.1,18.0,77,29.95,10.0,South,4.6,-,N/A,,Clear,190,2013-01-31 00:53:00
7:53 PM,23.0,17.1,78,29.95,10.0,Variable,4.6,-,N/A,,Clear,0,2013-01-31 01:53:00
8:53 PM,21.0,17.1,85,29.97,10.0,WSW,4.6,-,N/A,,Clear,240,2013-01-31 02:53:00
9:53 PM,21.0,15.1,78,29.98,10.0,WSW,4.6,-,N/A,,Clear,250,2013-01-31 03:53:00
10:53 PM,23.0,16.0,74,29.96,10.0,West,9.2,-,N/A,,Clear,260,2013-01-31 04:53:00
11:53 PM,25.0,18.0,75,29.97,10.0,West,10.4,-,N/A,,Clear,270,2013-01-31 05:53:00